This is the latest recevied weather packets stored in our database for station/object SR9NSK-1. If no packets are shown the sender has not sent any weather packets the latest 1 day(s).
| Time | Temp. | Humidity | Pressure | Rain* | Wind** | Luminosity | Snow |
|---|---|---|---|---|---|---|---|
| 1778011621 | 11.67° C | 50% | 869.7 hPa | - | 5.36 m/s, 162° | - | - |
| 1778011501 | 11.67° C | 50% | 869.7 hPa | - | 4.47 m/s, 155° | - | - |
| 1778011381 | 11.67° C | 49% | 869.7 hPa | - | 4.92 m/s, 150° | - | - |
| 1778011260 | 11.67° C | 49% | 869.7 hPa | - | 5.36 m/s, 151° | - | - |
| 1778011140 | 11.67° C | 49% | 869.7 hPa | - | 6.26 m/s, 154° | - | - |
| 1778011020 | 11.67° C | 49% | 869.8 hPa | - | 5.81 m/s, 150° | - | - |
| 1778010900 | 11.67° C | 49% | 869.8 hPa | - | 7.15 m/s, 146° | - | - |
| 1778010778 | 11.67° C | 49% | 869.8 hPa | - | 5.81 m/s, 148° | - | - |
| 1778010656 | 11.67° C | 49% | 869.9 hPa | - | 3.58 m/s, 141° | - | - |
| 1778010573 | 11.67° C | 49% | 869.8 hPa | - | 3.58 m/s, 148° | - | - |
| 1778010536 | 11.67° C | 49% | 869.8 hPa | - | 3.58 m/s, 148° | - | - |
| 1778010416 | 11.67° C | 49% | 869.8 hPa | - | 5.81 m/s, 138° | - | - |
| 1778010296 | 11.67° C | 48% | 869.8 hPa | - | 5.81 m/s, 134° | - | - |
| 1778010176 | 11.67° C | 48% | 869.7 hPa | - | 6.71 m/s, 141° | - | - |
| 1778010056 | 11.67° C | 48% | 869.8 hPa | - | 6.26 m/s, 140° | - | - |
| 1778009936 | 11.67° C | 48% | 869.7 hPa | - | 5.81 m/s, 130° | - | - |
| 1778009816 | 11.67° C | 48% | 869.8 hPa | - | 7.15 m/s, 137° | - | - |
| 1778009696 | 11.67° C | 48% | 869.8 hPa | - | 6.26 m/s, 137° | - | - |
| 1778009574 | 12.22° C | 48% | 869.9 hPa | - | 4.92 m/s, 127° | - | - |
| 1778009454 | 12.22° C | 48% | 869.9 hPa | - | 4.02 m/s, 130° | - | - |
| 1778009333 | 12.22° C | 48% | 869.9 hPa | - | 4.92 m/s, 128° | - | - |
| 1778009213 | 12.22° C | 48% | 869.9 hPa | - | 6.26 m/s, 125° | - | - |
| 1778009093 | 12.22° C | 48% | 869.9 hPa | - | 5.36 m/s, 135° | - | - |
| 1778008973 | 12.22° C | 48% | 870 hPa | - | 5.36 m/s, 137° | - | - |
| 1778008853 | 12.22° C | 48% | 870 hPa | - | 5.81 m/s, 128° | - | - |
* Rain since midnight (hover to see other rain measurements)
** Current wind speed in m/s (hover to see current wind gust speed)